Regional Weather Roundup
Issued by NWS

Home | Current Version | Previous Version | Graphics & Text | Print | Product List | Glossary On
Versions: 1 2 3 4 5 6 7 8 9 10 11 12 13 14 15 16 17 18 19 20 21 22 23 24 25 26 27
000
ASUS45 KSLC 211510
RWRUT

UTAH REGIONAL WEATHER ROUNDUP
NATIONAL WEATHER SERVICE SALT LAKE CITY UT
900 AM MDT FRI JUL 21 2017

UTZ001>011-023>025-211600-

NORTHERN UTAH

CITY           SKY/WX    TMP DP  RH WIND       PRES   REMARKS
BRIGHAM CITY   SUNNY     75  47  37 N3        30.10R
HILL AFB       MOSUNNY   78  54  43 E10       30.11R
LOGAN          SUNNY     72  57  59 CALM      30.12R
OGDEN          SUNNY     80  55  42 SE7       30.08R
SALT LAKE CITY MOSUNNY   82  55  39 E6        30.07R
TOOELE VALLEY  SUNNY     81  54  39 SE7       30.09S
WENDOVER       SUNNY     81  38  21 NE6       30.10R
HEBER CITY     MOSUNNY   72  50  46 CALM      30.17S
WEST JORDAN    SUNNY     80  60  50 S8        30.11R

$$

UTZ011>015-024>027-211600-

CENTRAL/NORTHEAST UTAH

CITY           SKY/WX    TMP DP  RH WIND       PRES   REMARKS
PROVO AIRPORT  MOSUNNY   76  55  48 SE6       30.12R
MOAB/CANYONLAN MOSUNNY   78  61  55 CALM      30.12R
DELTA          SUNNY     79  50  36 SW6       30.12S
PRICE          MOSUNNY   75  53  46 SE7       30.22R
ROOSEVELT      CLOUDY    77  54  44 CALM      30.20S
VERNAL         SUNNY     76  54  46 S3        30.19R

$$

UTZ013>016-019>022-027-211600-

SOUTHERN UTAH

CITY           SKY/WX    TMP DP  RH WIND       PRES   REMARKS
BRYCE CANYON   MOSUNNY   65  54  67 CALM      30.36S
CEDAR CITY     MOSUNNY   76  49  38 N5        30.20R
MILFORD        SUNNY     78  53  41 S15       30.14R
ST GEORGE      MOSUNNY   84  56  38 CALM      30.03R
HANKSVILLE     MOSUNNY   77  55  47 CALM      30.15S
BLANDING       PTSUNNY   67  60  78 CALM      30.33R

$$

REGIONAL REPORTS     COLORADO/ARIZONA

CITY           SKY/WX    TMP DP  RH WIND       PRES   REMARKS
CRAIG, CO      SUNNY     73  49  42 E9        30.26R
GRAND JUNCTION MOSUNNY   76  55  48 E8        30.16R
RIFLE, CO      MOSUNNY   70  54  56 CALM      30.22S
MONTROSE, CO   CLOUDY    71  53  52 SW5       30.24F
CORTEZ, CO     CLOUDY    67  57  70 E6        30.26R
COLORADO CITY    N/A     79  59  50 CALM      30.20R
PAGE, AZ       MOSUNNY   80  60  50 E5        30.12R
GRAND CANYON   MOSUNNY   68  56  65 SW3       30.31R
KINGMAN, AZ    SUNNY     83  59  44 E9        30.08R
FLAGSTAFF, AZ  LGT RAIN  59  56  89 VRB3      30.34R FOG

$$

REGIONAL REPORTS    NEVADA/IDAHO/WYOMING

CITY           SKY/WX    TMP DP  RH WIND       PRES   REMARKS
LAS VEGAS, NV  MOSUNNY   88  49  25 W3        29.95R
ELY, NY        SUNNY     65  45  48 W3        30.24S
ELKO, NV       SUNNY     63  24  22 CALM      30.18S
POCATELLO, ID  SUNNY     72  39  30 SW8       30.16R
BURLEY, ID     SUNNY     69  43  38 W6        30.13R
FORT BRIDGER,  PTSUNNY   65  55  69 N6        30.32R
EVANSTON, WY   CLOUDY    68  53  58 VRB3      30.30R
ROCK SPRINGS,  CLOUDY    62  55  77 S6        30.28R
KEMMERER, WY     N/A     66  50  55 CALM      30.33R

$$




USA.gov is the U.S. government's official web portal to all federal, state and local government web resources and services.